Total_Precipitation_Accumulation
0.36 0.38 0.36 0.34 0.32 0.34 0.47 0.65 0.68 0.71 0.79 0.71 0.78 0.83 0.61 0.59 0.54 0.56 0.57 0.54 0.57 0.55 0.46 0.38 0.86 1.54 1.01 0.83 0.25 0.16 0.16 0.20 0.60 0.95 0.54 0.44 0.43 0.35 0.13 0.09 0.21 0.36 0.46 0.56 0.71 0.62 0.47
0.34 0.34 0.36 0.32 0.31 0.37 0.60 0.67 0.70 0.79 0.65 0.63 0.75 0.71 0.55 0.57 0.67 0.57 0.37 0.42 0.51 0.47 0.57 0.60 1.21 1.52 0.90 0.55 0.16 0.14 0.16 0.39 0.62 0.78 0.62 0.55 0.47 0.36 0.24 0.13 0.27 0.18 0.44 0.68 0.97 0.79 0.86
0.30 0.33 0.34 0.32 0.37 0.51 0.60 0.53 0.47 0.45 0.51 0.59 0.74 0.70 0.62 0.71 0.64 0.51 0.43 0.48 0.57 0.50 0.54 0.80 1.27 1.56 0.95 0.33 0.19 0.27 0.14 0.54 0.97 0.69 0.73 0.62 0.72 0.76 0.49 0.26 0.14 0.23 0.65 0.99 1.08 1.23 1.21
0.31 0.34 0.33 0.33 0.46 0.56 0.49 0.40 0.45 0.45 0.51 0.70 0.81 0.72 0.64 0.78 0.71 0.67 0.57 0.55 0.65 0.74 0.99 1.47 1.87 1.36 1.09 0.29 0.27 0.31 0.22 0.37 0.80 1.04 0.99 1.09 0.79 0.91 0.56 0.41 0.32 0.51 0.94 1.00 0.93 1.30 1.91
0.34 0.36 0.38 0.45 0.60 0.51 0.43 0.43 0.51 0.49 0.66 0.86 0.88 0.87 0.95 0.99 0.87 0.89 0.94 1.00 0.86 0.75 1.24 1.88 1.81 1.23 0.91 0.46 0.34 0.17 0.23 0.39 0.72 1.49 1.85 2.06 1.72 1.23 0.65 0.65 0.61 0.56 0.57 0.73 0.73 0.77 1.87
0.42 0.46 0.47 0.47 0.53 0.42 0.48 0.53 0.55 0.65 0.90 1.06 1.06 1.32 1.28 0.94 1.01 1.05 1.04 1.94 2.00 1.00 1.55 1.88 1.60 1.33 0.73 0.61 0.34 0.25 0.30 0.50 0.80 1.64 2.42 2.83 2.66 1.54 0.62 0.69 0.48 0.19 0.24 0.34 0.62 0.60 1.10
0.43 0.49 0.41 0.60 0.46 0.51 0.54 0.60 0.59 0.79 1.00 1.11 1.16 1.18 0.95 0.93 0.93 0.81 1.01 1.78 1.95 2.00 2.26 1.75 0.83 0.56 0.47 0.64 0.50 0.52 0.53 0.67 1.43 2.03 2.31 2.43 2.03 1.26 0.34 0.20 0.21 0.13 0.21 0.23 0.49 0.69 0.54
0.49 0.57 0.57 0.58 0.55 0.50 0.58 0.59 0.67 0.85 0.94 0.95 0.92 0.86 0.83 0.88 1.00 1.19 1.33 1.57 1.27 1.68 2.38 1.58 0.56 0.44 0.42 0.50 0.77 0.68 0.80 1.36 1.72 2.04 1.77 1.96 1.09 0.71 0.62 0.33 0.31 0.26 0.26 0.25 0.40 0.70 0.62
0.61 0.63 0.64 0.58 0.48 0.52 0.59 0.66 0.86 1.00 1.07 0.97 0.80 0.76 0.79 0.95 1.03 1.40 1.30 0.94 0.94 1.11 1.89 1.80 0.95 0.76 0.63 0.52 0.83 0.73 1.14 1.54 1.62 1.51 1.16 1.21 0.60 0.37 0.61 0.55 0.46 0.26 0.22 0.20 0.38 0.47 0.42
0.66 0.58 0.54 0.50 0.56 0.66 0.70 0.73 0.81 0.94 1.08 1.03 0.90 0.96 1.03 1.17 1.35 1.01 1.27 0.93 0.82 1.14 1.66 1.78 1.08 1.01 0.57 1.02 1.21 0.56 1.63 1.59 1.70 1.35 1.03 1.18 0.68 0.46 0.44 0.74 0.42 0.30 0.14 0.24 0.49 0.59 0.53
0.87 0.63 0.50 0.49 0.56 0.69 0.83 0.91 1.03 1.05 1.15 1.25 1.29 1.09 0.93 1.28 1.31 1.16 0.86 0.64 0.87 1.50 1.77 1.26 1.01 0.74 0.89 0.88 0.66 0.79 1.30 1.20 1.09 1.08 1.06 0.96 0.61 0.69 0.51 0.70 0.39 0.43 0.17 0.24 0.40 0.61 1.01
0.71 0.48 0.54 0.63 0.70 0.74 0.78 0.88 1.20 1.40 1.36 1.40 1.25 1.18 1.07 1.05 0.98 0.98 0.84 0.61 1.28 1.68 2.19 2.03 1.50 1.31 0.78 0.56 0.53 0.97 1.32 0.99 0.91 0.95 1.00 0.59 0.44 0.88 0.75 0.59 0.55 0.41 0.44 0.41 0.65 0.84 1.40
0.53 0.52 0.71 0.80 0.85 0.84 0.94 1.17 1.31 1.18 1.24 1.24 1.21 1.41 1.31 0.79 0.89 0.85 1.31 1.13 1.53 1.26 1.21 1.46 1.17 0.57 0.40 0.52 0.83 1.15 1.22 0.79 1.12 1.57 1.45 1.24 0.99 0.84 0.76 0.99 1.03 0.73 0.94 1.41 1.42 1.74 0.86
0.55 0.61 0.78 0.89 1.00 1.19 1.48 1.62 1.32 1.14 1.20 1.18 1.42 1.45 1.47 1.01 0.94 0.99 1.80 1.29 1.22 0.86 0.98 0.82 0.41 0.39 0.50 0.39 0.57 0.75 0.98 0.50 0.31 0.47 0.78 0.96 1.41 1.19 0.78 0.87 1.21 0.97 0.90 1.17 0.86 0.74 0.62
0.60 0.86 1.10 1.14 1.33 1.60 1.62 1.34 1.07 1.13 1.22 1.28 1.77 1.97 1.74 1.48 1.20 1.32 1.48 1.21 1.04 0.95 0.94 0.47 0.32 0.37 0.40 0.18 0.28 0.53 0.43 0.24 0.15 0.16 0.63 0.48 0.76 0.58 0.77 0.62 0.81 0.83 0.85 0.75 1.07 0.56 0.60
0.80 0.97 1.16 1.45 1.60 1.70 1.55 1.20 1.31 1.32 1.53 1.65 2.35 2.66 1.63 1.35 1.47 1.46 1.32 1.06 0.64 0.41 0.28 0.18 0.29 0.14 0.10 0.06 0.11 0.12 0.17 0.07 0.11 0.04 0.21 0.37 0.74 0.96 0.85 0.78 0.65 0.59 0.46 0.72 1.26 0.89 0.57
0.95 1.13 1.31 1.61 1.81 1.90 1.65 1.44 1.51 1.71 1.68 2.07 2.36 2.50 1.68 1.75 2.08 2.06 1.56 1.13 0.45 0.18 0.15 0.15 0.09 0.04 0.02 0.02 0.05 0.13 0.14 0.07 0.06 0.13 0.23 0.55 0.99 1.03 1.06 0.78 0.53 0.69 0.75 0.45 0.57 0.49 0.42
1.08 1.24 1.49 1.69 1.98 1.97 1.98 1.77 1.64 1.93 1.83 2.28 2.22 2.01 1.92 2.35 2.56 1.80 1.08 0.78 0.47 0.16 0.17 0.14 0.12 0.03 0.01 0.02 0.04 0.13 0.12 0.09 0.03 0.11 0.31 0.41 0.79 0.81 0.65 0.18 0.13 0.25 0.26 0.19 0.69 0.49 0.39
1.22 1.23 1.24 1.48 1.73 1.99 2.34 2.04 1.30 1.77 1.92 2.01 2.00 1.85 2.76 1.57 1.10 0.73 0.47 0.44 0.30 0.10 0.15 0.19 0.12 0.01 0.01 0.03 0.03 0.02 0.01 0.01 0.00 0.02 0.20 0.44 1.01 0.82 0.70 0.48 0.49 0.69 0.33 0.37 0.63 0.99 0.76
1.09 0.99 1.01 1.24 1.46 1.73 2.11 2.27 1.56 1.54 1.66 1.89 1.87 1.90 3.74 2.47 0.61 0.18 0.42 0.46 0.30 0.06 0.08 0.14 0.12 0.03 0.05 0.03 0.01 0.01 0.00 0.00 0.00 0.00 0.16 0.72 0.81 0.86 0.71 0.63 0.88 0.72 0.34 0.53 1.08 1.15 0.37
1.05 0.89 0.85 1.13 1.38 1.57 1.82 2.38 2.62 2.09 1.93 1.75 1.30 0.79 0.85 0.98 0.50 0.11 0.36 0.34 0.37 0.23 0.13 0.17 0.12 0.04 0.07 0.03 0.01 0.01 0.00 0.00 0.00 0.00 0.16 0.66 1.15 1.28 0.54 0.32 0.69 0.60 0.31 0.43 0.98 0.55 0.51
0.96 0.87 0.85 1.07 1.61 1.89 1.78 1.88 2.35 2.05 2.04 1.37 0.77 0.58 0.12 0.07 0.06 0.16 0.23 0.28 0.34 0.34 0.28 0.20 0.15 0.04 0.04 0.05 0.01 0.01 0.00 0.00 0.01 0.01 0.15 0.55 0.95 0.81 0.34 0.20 0.40 0.47 0.23 0.35 0.56 0.41 0.30
0.75 0.89 0.89 0.94 1.31 1.80 1.62 1.79 1.97 1.61 1.90 1.41 0.69 0.50 0.15 0.12 0.13 0.10 0.08 0.12 0.23 0.37 0.24 0.09 0.09 0.11 0.07 0.03 0.01 0.00 0.00 0.00 0.00 0.01 0.07 0.36 0.63 0.82 0.65 0.41 0.55 0.52 0.26 0.31 0.41 0.35 0.24
0.80 0.88 1.07 1.00 1.15 1.44 1.46 1.60 1.70 1.62 1.58 1.23 0.70 0.67 0.32 0.12 0.05 0.02 0.02 0.11 0.23 0.27 0.26 0.14 0.08 0.12 0.06 0.06 0.04 0.02 0.02 0.00 0.01 0.01 0.01 0.10 0.32 0.66 0.76 0.67 0.68 0.49 0.29 0.21 0.23 0.23 0.17
0.94 0.99 1.12 1.22 1.34 1.09 1.17 1.29 1.34 1.30 0.91 0.70 0.59 0.60 0.38 0.10 0.03 0.03 0.03 0.13 0.22 0.21 0.31 0.27 0.09 0.03 0.05 0.07 0.16 0.13 0.11 0.11 0.02 0.02 0.02 0.05 0.10 0.31 0.27 0.28 0.20 0.08 0.16 0.17 0.23 0.16 0.08
0.68 1.03 1.25 1.36 1.44 1.21 1.05 0.93 1.01 0.86 0.75 0.47 0.47 0.62 0.55 0.22 0.05 0.02 0.03 0.15 0.24 0.20 0.29 0.24 0.11 0.09 0.15 0.22 0.36 0.23 0.11 0.10 0.04 0.04 0.03 0.03 0.06 0.21 0.18 0.25 0.11 0.04 0.02 0.01 0.02 0.06 0.01
0.74 0.87 1.32 1.46 1.43 1.38 1.25 0.96 1.02 0.72 0.51 0.38 0.41 0.48 0.47 0.21 0.03 0.01 0.02 0.15 0.33 0.21 0.27 0.35 0.24 0.21 0.22 0.36 0.38 0.22 0.07 0.01 0.01 0.02 0.06 0.15 0.15 0.27 0.22 0.25 0.01 0.00 0.00 0.00 0.03 0.02 0.00
0.62 0.64 1.06 1.52 1.34 1.21 1.22 0.90 0.84 0.54 0.43 0.46 0.27 0.32 0.47 0.25 0.01 0.00 0.00 0.08 0.38 0.35 0.27 0.34 0.44 0.34 0.43 0.46 0.32 0.14 0.04 0.01 0.00 0.00 0.00 0.04 0.08 0.09 0.14 0.18 0.02 0.00 0.00 0.01 0.01 0.00 0.00
0.82 0.78 1.07 1.33 1.10 0.91 0.76 0.65 0.62 0.47 0.37 0.46 0.36 0.23 0.35 0.22 0.04 0.00 0.00 0.01 0.20 0.33 0.37 0.34 0.39 0.31 0.40 0.40 0.26 0.11 0.04 0.02 0.01 0.01 0.00 0.00 0.01 0.00 0.00 0.00 0.00 0.00 0.00 0.00 0.00 0.00 0.00